Regional Weather Roundup
Issued by NWS Green Bay, WI

Home | Current Version | Previous Version | Text Only | Print | Product List | Glossary On
Versions: 1 2 3 4 5 6 7 8 9 10 11 12 13 14 15 16 17 18 19 20 21 22 23 24 25 26 27 28 29 30 31 32 33 34 35 36 37 38 39 40 41 42 43 44 45 46 47 48 49 50
000
ASUS43 KGRB 022100
RWRGRB

NORTH-CENTRAL AND NORTHEAST WISCONSIN REGIONAL WEATHER ROUNDUP
NATIONAL WEATHER SERVICE GREEN BAY WI
400 PM CDT TUE JUN 02 2015

WIZ005-009-010>012-018-019-022200-
NORTH CENTRAL WISCONSIN

CITY           SKY/WX    TMP DP  RH WIND       PRES   REMARKS
IRONWOOD       SUNNY     73  41  31 SW9G20    29.96F
MANITOWISH WTR NOT AVBL
ARBOR VITAE    NOT AVBL
EAGLE RIVER    NOT AVBL
LAND O LAKES   NOT AVBL
RHINELANDER    SUNNY     71  36  27 S10G18    30.07F
PHILLIPS       NOT AVBL
ANTIGO         NOT AVBL
TOMAHAWK       NOT AVBL
MERRILL        NOT AVBL
$$

WIZ013-073-022200-
NORTHEAST WISCONSIN

CITY           SKY/WX    TMP DP  RH WIND       PRES   REMARKS
IRON MOUNTAIN  MOSUNNY   72  33  24 S12G18    30.06F
MARINETTE      PTSUNNY   66  43  42 SE13      30.10F
$$

WIZ017-030-035>037-045-022200-
CENTRAL WISCONSIN

CITY           SKY/WX    TMP DP  RH WIND       PRES   REMARKS
MEDFORD        NOT AVBL
WAUSAU         SUNNY     72  38  29 S10       30.06F
MOSINEE        SUNNY     70  39  32 S9G16     30.09F
MARSHFIELD     SUNNY     73  36  25 S8        30.07F
WISC RAPIDS    SUNNY     74  36  25 SW12G17   30.08F
STEVENS POINT  NOT AVBL
WAUPACA        NOT AVBL
SHAWANO        NOT AVBL
CLINTONVILLE   NOT AVBL
$$

WIZ038-039-048-051-022200-
FOX VALLEY

CITY           SKY/WX    TMP DP  RH WIND       PRES   REMARKS
NWS GREEN BAY  MOSUNNY   71  42  35 S14       30.10F
APPLETON       SUNNY     70  37  30 S12       30.11F
OSHKOSH        SUNNY     71  40  32 SE12G18   30.09F
FOND DU LAC    SUNNY     70  37  29 SE12      30.10F
$$

WIZ022-050-052-022200-
EAST CENTRAL WISCONSIN

CITY           SKY/WX    TMP DP  RH WIND       PRES   REMARKS
STURGEON BAY   PTSUNNY   64  39  39 S12       30.15S
MANITOWOC      NOT AVBL
SHEBOYGAN      MOSUNNY   64  41  42 S8        30.14S
$$

LMZ563-521-522-541>543-022200-
LAKESHORE

STATION/POSITION TIME  TEMP    WIND        PRES    VSBY  WAVE
                       AIR SEA DIR/SP/G                  HT/PER
                 (UTC) (F)     (DEG/KT/KT) (MB)    (MI)  (FT/S)
SHEBOYGAN LKSHOR 2000   47     160/  9/ 10 1021.5F
KEWAUNEE LKSHORE 2000   48     180/ 10/ 11 1020.0F
ALGOMA MARINA    2009          220/ 13/ 13   N/A
NORTHPORT PIER   2000   57     150/  9/ 12 1020.3F
N MID LAKE BUOY  1950   42 38  170/  4/  4 1021.5F         0
SISTER BAY LKSHO 2018   69     160/ 11/ 14   N/A
CHAMBERS ISLAND  2000   66     140/  4/ 11 1020.0F
MENOMINEE LKSHOR 2000   62     140/  9/ 10 1020.3F
$$



USA.gov is the U.S. government's official web portal to all federal, state and local government web resources and services.